Date String (YYYY-MM-DD hh:mm:ss) UTC,Instrument flags,Ambient pressure (hPa),Sample flow (lpm),Bypass flow (lpm),Sample temperature (°C),Ambient temperature (°C),ASC tube jacket temperature (°C),LED temperature (°C),Box temperature (°C),Sample RH (%),Span deviation,Mass concentration (μg/m³),Mass concentration (μg/m³),Mass concentration (μg/m³)
DateTimeUTC,F1_M11,P_M11,Q1_M11,Q2_M11,T1_M11,T2_M11,T3_M11,T4_M11,T5_M11,U1_M11,ZSPAN_M11,X0_M11,X2_M11,X1_M11
2022-05-26 06:00:00,,0826.1,5.00,0.00,30.5,29.4,00.0,39.4,32.2,12.4,0000.0,0005.75,0003.07,0002.19
2022-05-26 06:01:00,,0826.0,5.00,0.00,30.5,29.4,00.0,39.4,32.2,12.5,0000.0,0005.84,0003.13,0002.21
2022-05-26 06:02:00,,0826.1,5.00,0.00,30.5,29.4,00.0,39.4,32.2,12.6,0000.0,0006.03,0003.16,0002.21
2022-05-26 06:03:00,,0826.1,5.00,0.00,30.4,29.3,00.0,39.4,32.2,12.5,0000.0,0006.33,0003.16,0002.22
2022-05-26 06:04:00,,0826.1,5.00,0.00,30.4,29.3,00.0,39.4,32.2,12.5,0000.0,0006.66,0003.15,0002.23
2022-05-26 06:05:00,,0826.2,5.00,0.00,30.4,29.3,00.0,39.4,32.2,12.4,0000.0,0007.22,0003.17,0002.23
2022-05-26 06:06:00,,0826.1,5.01,0.00,30.4,29.3,00.0,39.4,32.2,12.5,0000.0,0007.43,0003.20,0002.23
2022-05-26 06:07:00,,0826.2,5.01,0.00,30.4,29.3,00.0,39.4,32.2,12.5,0000.0,0007.61,0003.23,0002.25
2022-05-26 06:08:00,,0826.1,4.99,0.00,30.4,29.3,00.0,39.4,32.2,12.5,0000.0,0007.56,0003.23,0002.25
2022-05-26 06:09:00,,0826.1,5.00,0.00,30.4,29.3,00.0,39.4,32.2,12.6,0000.0,0007.53,0003.22,0002.26
2022-05-26 06:10:00,,0826.1,5.00,0.00,30.4,29.3,00.0,39.4,32.2,12.5,0000.0,0007.41,0003.25,0002.29
2022-05-26 06:11:00,,0826.1,5.00,0.00,30.4,29.2,00.0,39.4,32.2,12.3,0000.0,0007.27,0003.22,0002.28
2022-05-26 06:12:00,,0826.2,5.01,0.00,30.4,29.2,00.0,39.4,32.1,12.3,0000.0,0007.90,0003.23,0002.27
2022-05-26 06:13:00,,0826.1,4.99,0.00,30.4,29.2,00.0,39.4,32.1,12.3,0000.0,0008.61,0003.23,0002.26
2022-05-26 06:14:00,,0826.1,5.01,0.00,30.4,29.2,00.0,39.4,32.1,12.2,0000.0,0009.04,0003.22,0002.25
2022-05-26 06:15:00,,0826.2,5.00,0.00,30.4,29.2,00.0,39.4,32.1,12.2,0000.0,0008.95,0003.21,0002.22
2022-05-26 06:16:00,,0826.1,5.00,0.00,30.4,29.2,00.0,39.3,32.1,12.1,0000.0,0008.53,0003.18,0002.22
2022-05-26 06:17:00,,0826.1,5.01,0.00,30.4,29.2,00.0,39.3,32.1,12.1,0000.0,0008.27,0003.12,0002.21
2022-05-26 06:18:00,,0826.1,5.00,0.00,30.4,29.2,00.0,39.3,32.1,12.1,0000.0,0008.11,0003.03,0002.19
2022-05-26 06:19:00,,0826.1,5.00,0.00,30.4,29.2,00.0,39.3,32.1,12.1,0000.0,0008.11,0003.02,0002.18
2022-05-26 06:20:00,,0826.1,5.00,0.00,30.4,29.2,00.0,39.3,32.1,12.3,0000.0,0008.10,0003.04,0002.17
2022-05-26 06:21:00,,0826.1,5.00,0.00,30.4,29.2,00.0,39.3,32.1,12.6,0000.0,0008.07,0003.00,0002.16
2022-05-26 06:22:00,,0826.1,4.99,0.00,30.4,29.2,00.0,39.3,32.1,12.4,0000.0,0008.27,0003.03,0002.17
2022-05-26 06:23:00,,0826.1,5.00,0.00,30.4,29.1,00.0,39.3,32.1,12.3,0000.0,0008.07,0002.98,0002.18
2022-05-26 06:24:00,,0826.2,5.01,0.00,30.4,29.1,00.0,39.3,32.1,12.2,0000.0,0007.33,0002.90,0002.19
2022-05-26 06:25:00,,0826.1,4.99,0.00,30.3,29.1,00.0,39.3,32.1,12.2,0000.0,0006.96,0002.86,0002.20
2022-05-26 06:26:00,,0826.1,4.99,0.00,30.3,29.1,00.0,39.3,32.1,12.1,0000.0,0007.17,0002.88,0002.22
2022-05-26 06:27:00,,0826.1,5.01,0.00,30.3,29.1,00.0,39.3,32.1,12.1,0000.0,0007.95,0002.90,0002.22
2022-05-26 06:28:00,,0826.1,4.99,0.00,30.3,29.1,00.0,39.3,32.0,12.2,0000.0,0008.08,0002.95,0002.21
2022-05-26 06:29:00,,0826.1,4.99,0.00,30.3,29.1,00.0,39.3,32.0,12.4,0000.0,0008.21,0003.02,0002.23
2022-05-26 06:30:00,,0826.1,4.99,0.00,30.3,29.1,00.0,39.3,32.0,12.4,0000.0,0008.28,0003.10,0002.24
2022-05-26 06:31:00,,0826.1,5.01,0.00,30.3,29.1,00.0,39.3,32.0,12.5,0000.0,0008.44,0003.10,0002.26
2022-05-26 06:32:00,,0826.1,5.00,0.00,30.3,29.0,00.0,39.3,32.0,12.4,0000.0,0008.90,0003.11,0002.27
2022-05-26 06:33:00,,0826.1,4.99,0.00,30.3,29.0,00.0,39.3,32.0,12.5,0000.0,0008.82,0003.13,0002.28
2022-05-26 06:34:00,,0826.1,5.01,0.00,30.3,29.0,00.0,39.2,32.0,12.3,0000.0,0008.83,0003.16,0002.29
2022-05-26 06:35:00,,0826.1,5.01,0.00,30.3,29.0,00.0,39.2,32.0,12.3,0000.0,0009.00,0003.17,0002.29
2022-05-26 06:36:00,,0826.1,4.99,0.00,30.2,29.0,00.0,39.2,32.0,13.0,0000.0,0008.60,0003.18,0002.29
2022-05-26 06:37:00,,0826.2,5.00,0.00,30.2,29.0,00.0,39.2,32.0,13.2,0000.0,0008.50,0003.20,0002.32
2022-05-26 06:38:00,,0826.2,5.01,0.00,30.2,29.0,00.0,39.2,32.0,12.9,0000.0,0007.83,0003.20,0002.35
2022-05-26 06:39:00,,0826.1,5.00,0.00,30.2,29.0,00.0,39.2,31.9,12.8,0000.0,0007.74,0003.19,0002.38
2022-05-26 06:40:00,,0826.1,4.99,0.00,30.2,29.0,00.0,39.2,31.9,12.5,0000.0,0007.69,0003.16,0002.37
2022-05-26 06:41:00,,0826.1,5.00,0.00,30.2,29.0,00.0,39.2,31.9,12.8,0000.0,0007.81,0003.14,0002.37
2022-05-26 06:42:00,,0826.1,5.00,0.00,30.2,28.9,00.0,39.2,31.9,12.8,0000.0,0008.03,0003.12,0002.37
2022-05-26 06:43:00,,0826.1,5.00,0.00,30.2,28.9,00.0,39.2,31.9,12.6,0000.0,0007.50,0003.14,0002.38
2022-05-26 06:44:00,,0826.1,5.00,0.00,30.2,28.9,00.0,39.2,31.9,12.5,0000.0,0007.64,0003.14,0002.37
2022-05-26 06:45:00,,0826.1,4.99,0.00,30.2,28.9,00.0,39.2,31.9,12.5,0000.0,0007.65,0003.14,0002.36
2022-05-26 06:46:00,,0826.1,5.01,0.00,30.1,28.9,00.0,39.1,31.9,12.7,0000.0,0008.17,0003.13,0002.36
2022-05-26 06:47:00,,0826.2,5.01,0.00,30.1,28.9,00.0,39.1,31.9,12.8,0000.0,0008.11,0003.12,0002.36
2022-05-26 06:48:00,,0826.1,5.01,0.00,30.1,28.9,00.0,39.1,31.9,12.8,0000.0,0008.17,0003.09,0002.34
2022-05-26 06:49:00,,0826.1,5.01,0.00,30.1,28.9,00.0,39.1,31.9,12.7,0000.0,0008.15,0003.13,0002.32
2022-05-26 06:50:00,,0826.1,4.99,0.00,30.1,28.9,00.0,39.1,31.9,12.7,0000.0,0008.16,0003.13,0002.30
2022-05-26 06:51:00,,0826.1,5.00,0.00,30.1,28.9,00.0,39.1,31.8,12.5,0000.0,0008.06,0003.13,0002.29
2022-05-26 06:52:00,,0826.0,5.01,0.00,30.1,28.8,00.0,39.1,31.8,12.8,0000.0,0007.91,0003.12,0002.27
2022-05-26 06:53:00,,0826.0,5.00,0.00,30.1,28.8,00.0,39.1,31.8,12.8,0000.0,0007.60,0003.13,0002.26
2022-05-26 06:54:00,,0826.0,4.99,0.00,30.1,28.8,00.0,39.1,31.8,12.8,0000.0,0007.61,0003.14,0002.24
2022-05-26 06:55:00,,0826.1,4.99,0.00,30.1,28.8,00.0,39.1,31.8,13.0,0000.0,0007.47,0003.12,0002.24
2022-05-26 06:56:00,,0826.0,5.00,0.00,30.0,28.8,00.0,39.1,31.8,13.0,0000.0,0006.97,0003.05,0002.24
2022-05-26 06:57:00,,0826.0,5.00,0.00,30.0,28.8,00.0,39.1,31.8,13.1,0000.0,0005.64,0003.05,0002.24
2022-05-26 06:58:00,,0826.0,5.00,0.00,30.0,28.7,00.0,39.0,31.8,13.0,0000.0,0005.33,0003.07,0002.24
2022-05-26 06:59:00,,0826.0,5.00,0.00,30.0,28.7,00.0,39.0,31.7,13.1,0000.0,0005.14,0003.07,0002.25
